Nome, AK

8:44 AM AKDT on April 29, 2017 (GMT -0800)
Nome

Weather History for PAOM - December, 2011

Change the Weather History Date:

Saturday, December 17, 2011

  Actual Average Record
Temperature  
Mean Temperature 26 °F 9 °F  
Max Temperature 27 °F 17 °F 34 °F (1971)
Min Temperature 24 °F 2 °F -32 °F (1966)
Degree Days  
Heating Degree Days 39 56  
Month to date heating degree days 828 921  
Since 1 July heating degree days 5298 5014  
Cooling Degree Days 0 0  
Month to date cooling degree days 0 0  
Year to date cooling degree days 0 3  
Moisture  
Dew Point 24 °F    
Average Humidity 0    
Maximum Humidity 0    
Minimum Humidity 0    
Precipitation  
Precipitation 0.06 in 0.03 in 0.32 in (2008)
Month to date precipitation 2.07 0.58  
Year to date precipitation 18.35 16.31  
Snow  
Snow 0.70 in 0.50 in 6.00 in (2012)
Month to date snowfall 26.2 7.6  
Since 1 July snowfall 42.7 24.9  
Snow Depth 25.00 in    
Sea Level Pressure  
Sea Level Pressure 29.10 in    
Wind  
Wind Speed 16 mph (East)    
Max Wind Speed 23 mph    
Max Gust Speed 30 mph    
Visibility 4 miles    
Events Fog , Rain , Snow    
T = Trace of Precipitation, MM = Missing Value Source: NWS Daily Summary

Daily Weather History Graph

Daily Weather History Graph

Search for Another Location

Airport or City:

Trip Planner

Search our weather history database for the weather conditions in past years. The results will help you decide how hot, cold, wet, or windy it might be!

Date:

Astronomy

Dec. 17, 2011 Rise Set
Actual Time 11:59 AM AKST 3:56 PM AKST
Civil Twilight 10:37 AM AKST 5:18 PM AKST
Nautical Twilight 9:27 AM AKST 6:28 PM AKST
Astronomical Twilight 8:26 AM AKST 7:29 PM AKST
Moon 1:25 AM AKST (12/17) 1:25 PM AKST (12/17)
Length of Visible Light 6h 40m
Length of Day
3h 57m
Waning Gibbous, 52% of the Moon is Illuminated
Dec 17
Waning Gibbous
Dec 17
Last Quarter
Dec 24
New
Dec 31
First Quarter
Jan 8
Full

Hourly Weather History & Observations

Time (AKST) Temp. Windchill Dew Point Humidity Pressure Visibility Wind Dir Wind Speed Gust Speed Precip Events Conditions
12:30 AM 24.8 °F 13.4 °F 19.4 °F 80% 29.15 in 10.0 mi NE 12.7 mph - N/A   Overcast
12:53 AM 26.1 °F 14.5 °F 19.9 °F 78% 29.16 in 10.0 mi NE 13.8 mph - N/A   Overcast
1:53 AM 26.1 °F 15.0 °F 21.0 °F 81% 29.15 in 10.0 mi ENE 12.7 mph - N/A   Overcast
3:53 AM 25.0 °F 14.2 °F 23.0 °F 92% 29.14 in 5.0 mi ENE 11.5 mph - 0.00 in   Overcast
4:53 AM 25.0 °F 12.6 °F 24.1 °F 96% 29.14 in 3.0 mi ENE 15.0 mph - N/A   Overcast
5:28 AM 24.8 °F 11.9 °F 23.0 °F 93% 29.13 in 4.0 mi East 16.1 mph - N/A   Overcast
5:53 AM 24.1 °F 11.0 °F 21.9 °F 91% 29.13 in 6.0 mi East 16.1 mph - N/A   Overcast
6:53 AM 24.1 °F 10.6 °F 23.0 °F 96% 29.12 in 4.0 mi ENE 17.3 mph - N/A   Overcast
7:51 AM 24.8 °F 10.7 °F 23.0 °F 93% 29.11 in 3.0 mi ENE 19.6 mph - 0.00 in Rain Light Freezing Rain
7:53 AM 24.1 °F 10.1 °F 23.0 °F 96% 29.11 in 2.5 mi ENE 18.4 mph - 0.00 in Rain Light Freezing Rain
8:03 AM 24.8 °F 11.1 °F 23.0 °F 93% 29.10 in 2.5 mi ENE 18.4 mph - 0.00 in   Light Freezing Drizzle
8:13 AM 24.8 °F 11.1 °F 23.0 °F 93% 29.10 in 3.0 mi ENE 18.4 mph 27.6 mph 0.00 in   Light Freezing Drizzle
8:31 AM 24.8 °F 10.3 °F 24.8 °F 100% 29.10 in 2.0 mi East 20.7 mph 27.6 mph 0.00 in   Light Freezing Drizzle
8:50 AM 24.8 °F 11.1 °F 24.8 °F 100% 29.10 in 1.8 mi East 18.4 mph - 0.00 in Snow Light Snow
8:53 AM 25.0 °F 12.2 °F 24.1 °F 96% 29.11 in 1.8 mi East 16.1 mph - 0.00 in Snow Light Snow
9:34 AM 24.8 °F 11.1 °F 24.8 °F 100% 29.10 in 1.5 mi East 18.4 mph - 0.00 in Snow Light Snow
9:51 AM 24.8 °F 11.1 °F 24.8 °F 100% 29.10 in 1.5 mi East 18.4 mph - 0.00 in Snow Light Snow
9:53 AM 25.0 °F 11.7 °F 24.1 °F 96% 29.10 in 1.5 mi East 17.3 mph - 0.00 in Snow Light Snow
10:13 AM 24.8 °F 11.9 °F 23.0 °F 93% 29.10 in 2.0 mi East 16.1 mph - 0.01 in Snow Light Snow
10:25 AM 24.8 °F 11.1 °F 23.0 °F 93% 29.10 in 1.5 mi East 18.4 mph - 0.01 in Snow Light Snow
10:39 AM 24.8 °F 11.1 °F 24.8 °F 100% 29.09 in 1.2 mi East 18.4 mph - 0.01 in Snow Light Snow
10:48 AM 24.8 °F 11.1 °F 24.8 °F 100% 29.10 in 1.5 mi East 18.4 mph - 0.01 in Snow Light Snow
10:53 AM 25.0 °F 10.2 °F 24.1 °F 96% 29.10 in 1.5 mi East 21.9 mph - 0.02 in Snow Light Snow
11:25 AM 24.8 °F 10.3 °F 24.8 °F 100% 29.10 in 0.8 mi East 20.7 mph - 0.00 in Snow Light Snow
11:43 AM 26.6 °F 12.7 °F 24.8 °F 93% 29.11 in 1.0 mi East 20.7 mph - 0.00 in Snow Light Snow
11:51 AM 26.6 °F 13.1 °F 24.8 °F 93% 29.11 in 1.8 mi East 19.6 mph - 0.01 in Snow Light Snow
11:53 AM 26.1 °F 12.3 °F 25.0 °F 96% 29.11 in 2.0 mi East 19.6 mph - 0.01 in Snow Light Snow
12:05 PM 26.6 °F 14.3 °F 24.8 °F 93% 29.12 in 1.5 mi East 16.1 mph - 0.00 in Snow Light Snow
12:16 PM 26.6 °F 13.8 °F 24.8 °F 93% 29.12 in 1.2 mi East 17.3 mph - 0.01 in Snow Light Snow
12:21 PM 26.6 °F 14.3 °F 24.8 °F 93% 29.12 in 0.8 mi East 16.1 mph - 0.01 in Snow Light Snow
12:23 PM 26.6 °F 14.7 °F 24.8 °F 93% 29.12 in 0.5 mi East 15.0 mph - 0.01 in Fog , Snow Snow
12:27 PM 26.6 °F 14.7 °F 26.6 °F 100% 29.12 in 1.0 mi ESE 15.0 mph - 0.01 in Snow Light Snow
12:42 PM 26.6 °F 13.8 °F 26.6 °F 100% 29.12 in 1.5 mi ESE 17.3 mph - 0.02 in Snow Light Snow
12:53 PM 26.1 °F 13.1 °F 25.0 °F 96% 29.13 in 1.5 mi ESE 17.3 mph - 0.02 in Snow Light Snow
1:02 PM 26.6 °F 14.3 °F 26.6 °F 100% 29.12 in 1.2 mi ESE 16.1 mph - 0.00 in Snow Light Snow
1:40 PM 26.6 °F 15.2 °F 26.6 °F 100% 29.12 in 0.8 mi East 13.8 mph - 0.00 in Snow Light Snow
1:51 PM 26.6 °F 13.8 °F 26.6 °F 100% 29.12 in 1.2 mi East 17.3 mph - 0.01 in Snow Light Snow
1:53 PM 26.1 °F 12.7 °F 26.1 °F 100% 29.12 in 1.5 mi East 18.4 mph - 0.01 in Snow Light Snow
2:11 PM 26.6 °F 14.7 °F 24.8 °F 93% 29.12 in 1.2 mi East 15.0 mph - 0.00 in Snow Light Snow
2:27 PM 26.6 °F 14.7 °F 26.6 °F 100% 29.12 in 3.0 mi East 15.0 mph - 0.00 in Snow Light Snow
2:34 PM 26.6 °F 14.3 °F 24.8 °F 93% 29.12 in 1.8 mi East 16.1 mph - 0.00 in Snow Light Snow
2:41 PM 26.6 °F 13.8 °F 24.8 °F 93% 29.12 in 0.8 mi East 17.3 mph - 0.00 in Snow Light Snow
2:53 PM 25.0 °F 11.3 °F 25.0 °F 100% 29.12 in 0.8 mi East 18.4 mph - 0.00 in Snow Light Snow
3:09 PM 24.8 °F 11.9 °F 24.8 °F 100% 29.12 in 1.5 mi East 16.1 mph - 0.00 in   Overcast
3:15 PM 24.8 °F 11.9 °F 24.8 °F 100% 29.12 in 6.0 mi East 16.1 mph - 0.00 in   Mostly Cloudy
3:53 PM 24.1 °F 13.1 °F 21.9 °F 91% 29.11 in 10.0 mi East 11.5 mph - 0.00 in   Mostly Cloudy
4:15 PM 24.8 °F 12.4 °F 23.0 °F 93% 29.09 in 10.0 mi ENE 15.0 mph - N/A   Mostly Cloudy
4:53 PM 24.1 °F 11.0 °F 23.0 °F 96% 29.09 in 10.0 mi ENE 16.1 mph - N/A   Mostly Cloudy
5:53 PM 25.0 °F 11.7 °F 21.9 °F 88% 29.07 in 10.0 mi ENE 17.3 mph - N/A   Mostly Cloudy
6:53 PM 25.0 °F 11.7 °F 21.9 °F 88% 29.06 in 10.0 mi ENE 17.3 mph - N/A   Mostly Cloudy
7:53 PM 25.0 °F 12.2 °F 21.9 °F 88% 29.05 in 10.0 mi ENE 16.1 mph - N/A   Mostly Cloudy
8:53 PM 27.0 °F 14.7 °F 21.9 °F 81% 29.03 in 10.0 mi ENE 16.1 mph - N/A   Overcast
9:48 PM 26.6 °F 15.2 °F 23.0 °F 86% 29.01 in 2.5 mi ENE 13.8 mph - 0.00 in Snow Light Snow
9:53 PM 26.1 °F 14.0 °F 23.0 °F 88% 29.02 in 2.5 mi ENE 15.0 mph - 0.00 in Snow Light Snow
10:46 PM 26.6 °F 14.3 °F 24.8 °F 93% 29.00 in 10.0 mi ENE 16.1 mph 24.2 mph 0.00 in   Overcast
10:53 PM 27.0 °F 14.7 °F 24.1 °F 89% 29.00 in 4.0 mi ENE 16.1 mph 24.2 mph 0.00 in Snow Light Snow
11:02 PM 26.6 °F 13.8 °F 24.8 °F 93% 29.00 in 1.8 mi ENE 17.3 mph 24.2 mph 0.00 in Snow Light Snow
11:34 PM 26.6 °F 13.1 °F 24.8 °F 93% 28.99 in 3.0 mi NE 19.6 mph 24.2 mph N/A Snow Light Snow
11:53 PM 26.1 °F 14.0 °F 24.1 °F 92% 28.99 in 5.0 mi NE 15.0 mph - 0.00 in Snow Light Snow